CW6020 Teulada ES current weather conditions

sailwx.info

Wind at 1 knots gusting 2

Air temperature 32.2° C
Dewpoint 17.3° C

Last reported at 2016-Aug-24 16:51 UTC.
Time now 2016-Aug-24 18:03 UTC

Location: N 38°44' E 000°06'.
View on Google Maps.

See reports from other nearby stations

  
Tides and Currents Weather Stations Pressure Air Temp Water Temp Dewpoint Dewpoint Depression Visibility Wind Speed Wind Dir Waves Ship Positions
date/time (UTC)wind fromknots sea level pressurealtimeterstation pressurevisibilityair tempwater tempwave heightnotes
2016-Aug-24 16:51 32.2
2016-Aug-24 16:41 090 0 gusting 2 32.2
2016-Aug-24 16:31 045 1 gusting 3 32.2
2016-Aug-24 16:21 090 1 gusting 3 32.2
2016-Aug-24 16:11 135 0 gusting 2 32.2
2016-Aug-24 16:02 090 2 gusting 5 32.2
2016-Aug-24 15:51 045 1 gusting 2 32.2
2016-Aug-24 15:41 135 1 gusting 3 32.2
2016-Aug-24 15:31 045 0 gusting 2 32.2
2016-Aug-24 15:21 225 0 gusting 2 32.2
2016-Aug-24 15:11 090 1 gusting 3 32.8
2016-Aug-24 15:01 045 1 gusting 2 32.8
2016-Aug-24 14:51 090 1 gusting 2 32.8
2016-Aug-24 14:41 315 2 gusting 5 32.8
2016-Aug-24 14:31 180 1 gusting 2 32.8
2016-Aug-24 14:21 090 0 gusting 2 32.8
2016-Aug-24 14:11 135 0 gusting 1 32.8
2016-Aug-24 14:02 315 1 gusting 2 32.2
2016-Aug-24 13:51 157 1 gusting 2 32.2
2016-Aug-24 13:41 045 32.2
2016-Aug-24 13:31 32.2
2016-Aug-24 13:21 135 2 gusting 6 32.2
2016-Aug-24 13:11 32.2
2016-Aug-24 13:01 090 1 gusting 4 32.2
2016-Aug-24 12:51 090 0 gusting 2 32.2
2016-Aug-24 12:41 090 1 gusting 3 31.7
2016-Aug-24 12:31 045 31.7
2016-Aug-24 12:21 135 0 gusting 2 31.7
2016-Aug-24 12:11 045 0 gusting 4 31.1
2016-Aug-24 12:02 135 0 gusting 2 31.1
2016-Aug-24 11:51 315 2 gusting 3 31.1
2016-Aug-24 11:41 180 1 gusting 3 30.6
2016-Aug-24 11:31 090 30.6
2016-Aug-24 11:21 135 0 gusting 3 30.6
2016-Aug-24 11:11 045 0 gusting 1 30.0
2016-Aug-24 11:01 090 0 gusting 2 30.0
2016-Aug-24 10:51 045 1 gusting 2 29.4
2016-Aug-24 10:41 270 0 gusting 2 28.9
2016-Aug-24 10:31 090 1 gusting 4 28.9
2016-Aug-24 10:21 090 2 gusting 3 28.3
2016-Aug-24 10:11 135 0 gusting 1 28.3
2016-Aug-24 10:02 045 27.8
2016-Aug-24 09:51 135 2 gusting 3 27.8
2016-Aug-24 09:41 045 27.8
2016-Aug-24 09:31 090 0 gusting 3 27.8
2016-Aug-24 09:21 045 27.8
2016-Aug-24 09:11 270 1 gusting 2 27.8
2016-Aug-24 09:01 045 26.7
2016-Aug-24 08:51 135 26.7
2016-Aug-24 08:41 090 0 gusting 3 26.1
2016-Aug-24 08:31 090 0 gusting 2 25.6
2016-Aug-24 08:21 225 0 gusting 2 25.0
2016-Aug-24 08:11 135 25.0
2016-Aug-24 08:02 225 1 gusting 2 24.4
2016-Aug-24 07:51 045 23.9
2016-Aug-24 07:41 090 23.3
2016-Aug-24 07:31 090 0 gusting 3 22.8
2016-Aug-24 07:21 045 22.8
2016-Aug-24 07:11 045 22.8
2016-Aug-24 07:01 315 0 gusting 2 22.2
2016-Aug-24 06:51 315 1 gusting 2 22.2
2016-Aug-24 06:41 045 0 gusting 2 22.2
2016-Aug-24 06:31 045 1 gusting 4 22.2
2016-Aug-24 06:21 045 0 gusting 1 22.2
2016-Aug-24 06:11 315 2 gusting 5 21.7
2016-Aug-24 06:02 270 0 gusting 2 21.7
2016-Aug-24 05:51 315 1 gusting 5 21.7
2016-Aug-24 05:41 180 21.7
2016-Aug-24 05:31 21.7
2016-Aug-24 05:21 045 1 gusting 5 21.7
2016-Aug-24 05:11 21.7
2016-Aug-24 05:01 315 1 gusting 4 21.7
2016-Aug-24 04:51 045 21.7
2016-Aug-24 04:41 022 0 gusting 1 21.7
2016-Aug-24 04:31 022 21.7
2016-Aug-24 04:21 315 0 gusting 2 22.2
2016-Aug-24 04:11 22.2
2016-Aug-24 04:02 315 0 gusting 2 22.2
2016-Aug-24 03:51 045 0 gusting 1 22.2
2016-Aug-24 03:41 045 0 gusting 2 22.2
2016-Aug-24 03:31 22.2
2016-Aug-24 03:21 045 1 gusting 2 22.2
2016-Aug-24 03:11 045 4 gusting 7 22.2
2016-Aug-24 03:01 315 1 gusting 2 22.2
2016-Aug-24 02:51 315 1 gusting 2 22.2
2016-Aug-24 02:41 315 0 gusting 2 22.2
2016-Aug-24 02:31 045 1 gusting 3 21.7
2016-Aug-24 02:21 315 1 gusting 3 21.7
2016-Aug-24 02:11 21.7
2016-Aug-24 02:01 21.7
2016-Aug-24 01:51 21.7
2016-Aug-24 01:41 21.7
2016-Aug-24 01:31 21.7
2016-Aug-24 01:21 045 21.7
2016-Aug-24 01:11 045 0 gusting 1 21.1
2016-Aug-24 01:01 20.6
2016-Aug-24 00:51 20.6
2016-Aug-24 00:41 20.6
2016-Aug-24 00:31 20.6
2016-Aug-24 00:21 20.6
2016-Aug-24 00:11 20.6
2016-Aug-24 00:02 21.1
2016-Aug-23 23:51 20.6
2016-Aug-23 23:41 21.1
2016-Aug-23 23:31 21.1
2016-Aug-23 23:21 21.1
2016-Aug-23 23:11 21.1
2016-Aug-23 23:02 21.1
2016-Aug-23 22:51 21.1
2016-Aug-23 22:41 21.7
2016-Aug-23 22:31 21.7
2016-Aug-23 22:21 21.7
2016-Aug-23 22:11 22.2
2016-Aug-23 22:01 22.2
2016-Aug-23 21:46 22.8
2016-Aug-23 21:36 22.8
2016-Aug-23 21:26 22.8
2016-Aug-23 21:16 23.3
2016-Aug-23 21:05 23.3
2016-Aug-23 20:56 23.9
2016-Aug-23 20:46 045 23.9
2016-Aug-23 20:36 24.4
2016-Aug-23 20:26 25.0
2016-Aug-23 20:16 25.0
2016-Aug-23 20:05 25.6
2016-Aug-23 19:56 25.6
2016-Aug-23 19:45 26.1
2016-Aug-23 19:36 045 26.1
2016-Aug-23 19:26 26.7
2016-Aug-23 19:16 27.2
2016-Aug-23 19:06 27.2
2016-Aug-23 18:56 27.8
2016-Aug-23 18:46 28.3
2016-Aug-23 18:36 28.9
2016-Aug-23 18:26 29.4
2016-Aug-23 18:16 30.0
2016-Aug-23 18:06 135 30.6
2016-Aug-23 17:56 045 31.1
2016-Aug-23 17:46 090 31.1
2016-Aug-23 17:36 045 0 gusting 2 31.1
2016-Aug-23 17:26 135 0 gusting 1 31.7
2016-Aug-23 17:16 045 31.7
2016-Aug-23 17:06 31.7
2016-Aug-23 16:56 045 1 gusting 3 32.2
2016-Aug-23 16:46 045 1 gusting 3 32.2
2016-Aug-23 16:36 090 0 gusting 1 32.2
2016-Aug-23 16:26 135 32.2
2016-Aug-23 16:16 090 0 gusting 2 32.2
2016-Aug-23 16:06 045 1 gusting 2 32.2
2016-Aug-23 15:56 135 1 gusting 5 32.8
2016-Aug-23 15:46 090 32.8
2016-Aug-23 15:36 090 0 gusting 2 32.2
2016-Aug-23 15:26 045 1 gusting 2 32.2
2016-Aug-23 15:16 225 0 gusting 2 32.2
2016-Aug-23 15:06 225 0 gusting 2 32.2
2016-Aug-23 14:56 090 32.2
2016-Aug-23 14:46 090 0 gusting 2 31.7
2016-Aug-23 14:36 090 0 gusting 2 32.2
2016-Aug-23 14:26 045 32.2
2016-Aug-23 14:16 315 0 gusting 2 31.7
2016-Aug-23 14:06 090 1 gusting 2 31.7
2016-Aug-23 13:56 135 2 gusting 4 32.2
2016-Aug-23 13:46 090 1 gusting 2 32.2
2016-Aug-23 13:36 045 1 gusting 3 32.2
2016-Aug-23 13:26 32.2
2016-Aug-23 13:16 135 1 gusting 2 32.2
2016-Aug-23 13:06 315 0 gusting 2 32.2
2016-Aug-23 12:56 315 2 gusting 5 31.7
2016-Aug-23 12:46 225 2 gusting 3 31.7
2016-Aug-23 12:36 180 3 gusting 5 31.7
2016-Aug-23 12:26 045 1 gusting 3 31.7
2016-Aug-23 12:16 135 1 gusting 3 31.7
2016-Aug-23 12:06 090 0 gusting 2 31.7
2016-Aug-23 11:56 31.1
2016-Aug-23 11:46 135 0 gusting 2 30.6
2016-Aug-23 11:36 045 1 gusting 2 30.6
2016-Aug-23 11:26 135 1 gusting 2 30.6
2016-Aug-23 11:16 315 0 gusting 2 30.6
2016-Aug-23 11:06 090 1 gusting 2 30.0
2016-Aug-23 10:56 045 1 gusting 3 30.0
2016-Aug-23 10:46 30.0
2016-Aug-23 10:36 045 1 gusting 3 30.0
2016-Aug-23 10:26 090 1 gusting 3 30.0
2016-Aug-23 10:16 315 0 gusting 2 28.9
2016-Aug-23 10:06 045 2 gusting 4 28.9
2016-Aug-23 09:56 180 1 gusting 2 28.3
2016-Aug-23 09:46 135 0 gusting 2 27.8
2016-Aug-23 09:36 27.2
2016-Aug-23 09:26 045 1 gusting 2 26.7
2016-Aug-23 09:16 090 1 gusting 2 26.1
2016-Aug-23 09:06 26.1
2016-Aug-23 08:56 135 25.6
2016-Aug-23 08:45 25.6
2016-Aug-23 08:36 090 1 gusting 2 25.6
2016-Aug-23 08:26 135 25.0
2016-Aug-23 08:16 090 24.4
2016-Aug-23 08:06 045 0 gusting 2 24.4
2016-Aug-23 07:56 090 0 gusting 1 23.9
2016-Aug-23 07:46 135 2 gusting 5 23.3
2016-Aug-23 07:36 045 22.8
2016-Aug-23 07:26 045 22.8
2016-Aug-23 07:16 067 22.2
2016-Aug-23 07:06 270 1 gusting 2 22.2
2016-Aug-23 06:56 315 1 gusting 2 22.2
2016-Aug-23 06:46 045 21.7
2016-Aug-23 06:36 315 2 gusting 4 21.7
2016-Aug-23 06:26 315 1 gusting 2 21.7
2016-Aug-23 06:16 045 21.1
2016-Aug-23 06:06 090 21.1
2016-Aug-23 05:56 045 0 gusting 2 21.1
2016-Aug-23 05:46 045 21.1
2016-Aug-23 05:36 090 21.1
2016-Aug-23 05:26 045 0 gusting 1 21.1
2016-Aug-23 05:16 21.1
2016-Aug-23 05:06 045 0 gusting 2 21.1
2016-Aug-23 04:56 315 2 gusting 6 20.6
2016-Aug-23 04:46 090 0 gusting 1 20.6
2016-Aug-23 04:36 20.6
2016-Aug-23 04:26 045 1 gusting 2 20.0
2016-Aug-23 04:16 315 2 gusting 3 19.4
2016-Aug-23 04:06 045 18.9
2016-Aug-23 03:56 18.3
2016-Aug-23 03:46 18.3
2016-Aug-23 03:36 18.3
2016-Aug-23 03:26 18.3
2016-Aug-23 03:16 18.3
2016-Aug-23 03:06 18.3
2016-Aug-23 02:56 18.3
2016-Aug-23 02:46 18.3
2016-Aug-23 02:36 18.3
2016-Aug-23 02:25 18.9
2016-Aug-23 02:16 18.9
2016-Aug-23 02:05 18.9
2016-Aug-23 01:56 18.9
2016-Aug-23 01:46 18.9
2016-Aug-23 01:36 18.9
2016-Aug-23 01:26 19.4
2016-Aug-23 01:16 19.4
2016-Aug-23 01:06 19.4
2016-Aug-23 00:56 19.4
2016-Aug-23 00:46 19.4
2016-Aug-23 00:36 20.0
2016-Aug-23 00:26 20.0
2016-Aug-23 00:16 20.0
2016-Aug-23 00:06 20.0
2016-Aug-22 23:56 20.0
2016-Aug-22 23:46 20.6
2016-Aug-22 23:36 20.6
2016-Aug-22 23:25 20.6
2016-Aug-22 23:16 20.6
2016-Aug-22 23:05 20.6
2016-Aug-22 22:56 21.1
2016-Aug-22 22:46 21.1
2016-Aug-22 22:36 21.7
2016-Aug-22 22:26 21.7
2016-Aug-22 22:16 21.7
2016-Aug-22 22:06 21.7
2016-Aug-22 21:56 21.7
2016-Aug-22 21:41 22.2
2016-Aug-22 21:31 22.8
2016-Aug-22 21:21 22.8
2016-Aug-22 21:11 22.8
2016-Aug-22 21:01 23.3
2016-Aug-22 20:51 315 23.3
2016-Aug-22 20:42 045 23.3
2016-Aug-22 20:31 23.3
2016-Aug-22 20:21 090 23.9
2016-Aug-22 20:11 23.9
2016-Aug-22 20:01 23.9
2016-Aug-22 19:51 270 23.9
2016-Aug-22 19:41 315 24.4
2016-Aug-22 19:31 270 24.4
2016-Aug-22 19:21 270 24.4
2016-Aug-22 19:11 225 0 gusting 2 25.0
2016-Aug-22 19:01 270 2 gusting 4 25.0
2016-Aug-22 18:51 045 2 gusting 5 25.6
2016-Aug-22 18:41 337 2 gusting 2 25.6
2016-Aug-22 18:31 135 2 gusting 3 26.1
2016-Aug-22 18:21 180 2 gusting 4 26.7
2016-Aug-22 18:11 180 2 gusting 6 27.2
2016-Aug-22 18:01 135 2 gusting 4 27.8